Find Digui Tongxin Shiyan Wei.

NORAD ID: 52716 Int'l Des: 2022-056 Owner: CGSTL Country: CN operational
LEOCIRCULARPOLAR

当前视图

正在加载3D地球...

About Digui Tongxin Shiyan Wei.

Digui Tongxin Shiyan Wei. (NORAD 52716) is a satellite launched May 20, 2022 by CGSTL of CN. It operates in LEO, CIRCULAR, POLAR orbit with a mass of 300.00 kg.

即将过境

Passes for default location (London). Set your location on the main map for personalized predictions.

高度历史

Loading altitude history...

两行轨道根数

1 52716U 22056A 26195.22158691 .00000143 00000-0 78037-4 0 9990
2 52716 86.0034 11.7278 0018290 306.9806 52.9698 14.04409268212688
Epoch: Jul 14, 2026 • Age: 6 hours

当前状态

高度 900.7 km
远地点 / 近地点 N/A
速度 7.40 km/s
星下点 77.90°N, 64.08°W
发射日期 May 20, 2022
运行时间 4.1 years
类型 other

技术详情

分类 Payload
质量 300.00 kg
干质量 300.00 kg
总质量 300.00 kg
长度 2.50 m
直径 0.80 m
跨度 2.50 m
形状 Box + 2 Pan
制造商 CGSTL
阶段状态 In Orbit
所有者/国家 CGSTL/CN

Most Searched